KB3FCJ-2 Weather Reports


time (UTC)temp
C
wind
direction
speed
KPH
gust
KPH
rain 1hr
cm
rain 24hr
cm
rain mn
cm
humidity
%
barometer
mb
20260505183425 26 186 1.6 9.7 0.00 0.00 0.00 47 829.0
20260505182424 26 0 0.0 11.3 0.00 0.00 0.00 47 829.0
20260505181424 26 0 0.0 20.9 0.00 0.00 0.00 48 829.0
20260505175027 26 0 0.0 11.3 0.00 0.00 0.00 49 829.0
20260505174028 26 0 0.0 6.4 0.00 0.00 0.00 50 829.0
20260505173027 26 0 0.0 12.9 0.00 0.00 0.00 50 829.0
20260505171620 26 0 0.0 11.3 0.00 0.00 0.00 50 829.0
20260505170621 26 0 0.0 25.7 0.00 0.00 0.00 50 829.0
20260505165620 25 221 9.7 40.2 0.00 0.00 0.00 50 829.0
20260505164621 25 0 0.0 19.3 0.00 0.00 0.00 53 829.0
20260505163223 25 221 4.8 12.9 0.00 0.00 0.00 53 829.0
20260505161224 24 191 1.6 16.1 0.00 0.00 0.00 56 829.0
20260505160223 24 0 0.0 16.1 0.00 0.00 0.00 55 829.0
20260505152817 23 0 0.0 11.3 0.00 0.00 0.00 56 829.0
20260505151817 23 0 0.0 9.7 0.00 0.00 0.00 58 829.0
20260505150419 24 0 0.0 6.4 0.00 0.00 0.00 55 829.0
20260505124213 17 226 8.0 17.7 0.00 0.00 0.00 67 829.0
20260505123213 17 220 4.8 17.7 0.00 0.00 0.00 68 829.0
20260505122213 17 197 3.2 11.3 0.00 0.00 0.00 69 829.0
20260505120812 16 219 4.8 9.7 0.00 0.00 0.00 70 829.0
20260505115815 16 227 4.8 24.1 0.00 0.00 0.00 71 829.0
20260505114812 16 216 3.2 6.4 0.00 0.00 0.00 73 829.0
20260505113812 16 211 4.8 11.3 0.00 0.00 0.00 74 829.0
20260505112427 15 0 0.0 6.4 0.00 0.00 0.00 76 829.0
20260505111427 15 187 3.2 12.9 0.00 0.00 0.00 76 829.0
20260505110427 15 215 3.2 9.7 0.00 0.00 0.00 77 829.0
20260505102026 13 0 0.0 1.6 0.00 0.00 0.00 79 829.0
20260505101026 13 0 0.0 1.6 0.00 0.00 0.00 80 829.0
20260505095619 13 0 0.0 3.2 0.00 0.00 0.00 80 829.0
20260505094620 13 0 0.0 1.6 0.00 0.00 0.00 80 829.0
20260505093619 13 0 0.0 1.6 0.00 0.00 0.00 80 829.0
20260505092619 13 0 0.0 1.6 0.00 0.00 0.00 80 829.0
20260505091222 13 0 0.0 1.6 0.00 0.00 0.00 80 829.0
20260505090222 13 0 0.0 1.6 0.00 0.00 0.00 81 829.0
20260505085223 13 0 0.0 0.0 0.00 0.00 0.00 80 829.0
20260505084222 14 0 0.0 1.6 0.00 0.00 0.00 80 829.0
20260505082816 14 0 0.0 1.6 0.00 0.00 0.00 80 829.0
20260505081816 14 0 0.0 1.6 0.00 0.00 0.00 80 829.0
20260505080815 14 0 0.0 1.6 0.00 0.00 0.00 81 829.0
20260505075816 14 0 0.0 0.0 0.00 0.00 0.00 80 829.0
20260505074418 14 0 0.0 1.6 0.00 0.00 0.00 81 829.0
20260505073419 14 0 0.0 0.0 0.00 0.00 0.00 81 829.0
20260505072419 14 0 0.0 0.0 0.00 0.00 0.00 80 829.0
20260505071418 14 0 0.0 0.0 0.00 0.00 0.00 80 829.0
20260505070016 14 0 0.0 3.2 0.00 0.00 0.00 80 829.0
20260505065015 13 0 0.0 3.2 0.00 0.00 0.00 81 829.0
20260505064016 13 0 0.0 0.0 0.00 0.00 0.00 80 829.0
20260505063016 13 0 0.0 0.0 0.00 0.00 0.00 79 829.0
20260505061615 13 0 0.0 0.0 0.00 0.00 0.00 76 829.0
20260505060615 13 0 0.0 0.0 0.00 0.00 0.00 76 829.0
20260505055614 13 0 0.0 0.0 0.00 0.00 0.00 75 829.0
20260505054615 13 0 0.0 0.0 0.00 0.00 0.00 75 829.0
20260505053218 13 0 0.0 0.0 0.00 0.00 0.00 75 829.0
20260505052220 13 0 0.0 0.0 0.00 0.00 0.00 75 829.0
20260505051218 13 0 0.0 0.0 0.00 0.00 0.00 74 829.0
20260505050218 13 0 0.0 0.0 0.00 0.00 0.00 73 829.0
20260505040405 14 0 0.0 0.0 0.00 0.00 0.00 68 829.0
20260505035404 15 0 0.0 0.0 0.00 0.00 0.00 66 829.0
20260505034404 15 0 0.0 0.0 0.00 0.00 0.00 66 829.0
20260505033404 15 0 0.0 0.0 0.00 0.00 0.00 65 829.0
20260505032030 15 0 0.0 0.0 0.00 0.00 0.00 63 829.0
20260505031029 15 0 0.0 0.0 0.00 0.00 0.00 62 829.0
20260505030029 15 0 0.0 0.0 0.00 0.00 0.00 62 829.0
20260505025029 15 0 0.0 0.0 0.00 0.00 0.00 61 829.0
20260505023632 15 0 0.0 0.0 0.00 0.00 0.00 60 829.0
20260505022633 16 0 0.0 0.0 0.00 0.00 0.00 60 829.0
20260505021632 16 0 0.0 0.0 0.00 0.00 0.00 60 829.0
20260505020633 16 0 0.0 0.0 0.00 0.00 0.00 59 829.0
20260505015235 16 0 0.0 0.0 0.00 0.00 0.00 58 829.0
20260505014235 16 0 0.0 0.0 0.00 0.00 0.00 57 829.0
20260505013236 17 0 0.0 0.0 0.00 0.00 0.00 57 829.0
20260505012235 17 0 0.0 0.0 0.00 0.00 0.00 55 829.0
20260505010831 17 0 0.0 0.0 0.00 0.00 0.00 54 829.0
20260505005830 17 0 0.0 0.0 0.00 0.00 0.00 53 829.0
20260505004830 18 0 0.0 0.0 0.00 0.00 0.00 52 829.0
20260505003831 18 0 0.0 0.0 0.00 0.00 0.00 51 829.0
20260505002429 19 0 0.0 0.0 0.00 0.00 0.00 50 829.0
20260505001430 20 0 0.0 0.0 0.00 0.00 0.00 49 829.0
20260505000429 20 0 0.0 0.0 0.00 0.00 0.00 48 829.0
20260504235430 21 0 0.0 0.0 0.00 0.00 0.00 46 829.0
20260504234027 21 0 0.0 0.0 0.00 0.00 0.00 44 829.0
20260504233026 22 0 0.0 1.6 0.00 0.00 0.00 45 829.0
20260504232027 22 0 0.0 3.2 0.00 0.00 0.00 43 944.6
20260504231026 22 0 0.0 1.6 0.00 0.00 0.00 42 944.6
20260504225632 22 0 0.0 1.6 0.00 0.00 0.00 43 944.6
20260504224632 22 0 0.0 1.6 0.00 0.00 0.00 43 944.6
20260504223632 22 0 0.0 6.4 0.00 0.00 0.00 43 944.6
20260504222632 22 0 0.0 19.3 0.00 0.00 0.00 41 944.6
20260504221311 23 213 3.2 9.7 0.00 0.00 0.00 41 944.6
20260504220310 22 235 1.6 12.9 0.00 0.00 0.00 40 944.6
20260504215311 22 0 0.0 19.3 0.00 0.00 0.00 44 944.6
20260504214311 22 222 1.6 16.1 0.00 0.00 0.00 41 944.6
20260504213311 22 0 0.0 16.1 0.00 0.00 0.00 42 944.6
20260504212311 22 217 4.8 17.7 0.00 0.00 0.00 42 944.6
20260504210911 22 212 3.2 12.9 0.00 0.00 0.00 41 944.6
20260504205912 23 232 1.6 11.3 0.00 0.00 0.00 40 944.6
20260504204912 23 227 6.4 12.9 0.00 0.00 0.00 39 944.6
20260504203912 23 0 0.0 9.7 0.00 0.00 0.00 39 944.6
20260504202513 22 0 0.0 12.9 0.00 0.00 0.00 41 944.6
20260504201513 23 0 0.0 8.0 0.00 0.00 0.00 40 944.6
20260504200513 22 205 1.6 16.1 0.00 0.00 0.00 41 944.6
20260504195513 22 225 9.7 19.3 0.00 0.00 0.00 42 944.6
20260504194116 22 217 3.2 16.1 0.00 0.00 0.00 42 944.6
20260504193116 22 0 0.0 11.3 0.00 0.00 0.00 41 944.6
20260504192116 22 204 8.0 16.1 0.00 0.00 0.00 43 944.6
20260504191116 21 189 1.6 16.1 0.00 0.00 0.00 41 944.6
20260504185720 21 0 0.0 16.1 0.00 0.00 0.00 44 944.6
20260504184719 21 205 8.0 17.7 0.00 0.00 0.00 45 944.6